Vertical_Velocity
3 1 -0 1 0 1 3 0 -1 -0 -1 -2 -3 -3 -3 -1 1 -1 3 5 -0 -0
2 -2 1 0 1 -0 1 -0 -2 -5 -2 -2 1 1 -1 1 -0 1 1 1 0 1
1 -2 -6 -4 -1 -1 -0 -1 -1 1 -0 0 2 3 1 0 -3 -4 1 -2 -1 -0
-1 -0 -1 -1 -0 0 0 -3 -8 -5 -3 -4 -8 -4 -2 -5 -1 1 -1 1 5 8
-1 -5 1 -5 -0 -1 -3 -1 -6 -2 0 -2 0 1 -1 -4 -5 -2 -0 -1 1 0
1 0 -1 -2 -1 -1 -2 -4 -1 -3 -3 1 -7 1 -3 -2 1 1 2 0 -2 -3
5 4 1 4 5 7 2 2 1 9 -2 -3 0 -1 2 2 2 2 -0 -2 -2 -2
-0 -3 1 2 5 3 15 7 -9 4 1 -2 -2 0 1 -0 -1 -2 -3 -1 -1 -3
1 5 -4 -5 3 3 26 -19 17 5 -4 -1 2 0 1 -2 -3 -2 -2 -3 -2 -1
-7 -10 -2 2 2 9 7 18 17 -1 -4 2 2 2 -2 0 -1 -1 -1 -2 -1 -2
-1 4 4 3 -2 -8 -13 -7 -7 1 4 1 2 4 1 -1 1 0 0 -0 -0 1
-1 -6 -4 3 6 3 -9 5 9 1 4 -1 1 1 -0 -1 -0 -2 -2 -1 0 2
-3 -4 -3 -0 -1 -0 1 1 3 1 1 0 2 1 -1 -3 -3 -3 -5 -7 -5 -1
-2 -4 -4 0 2 -1 -0 2 1 2 -0 3 1 -1 -1 -1 -2 -2 -4 -2 -5 -0
Height
1542 1540 1538 1535 1532 1529 1525 1523 1521 1518 1515 1512 1508 1505 1503 1500 1497 1495 1494 1491 1488 1487
1538 1536 1533 1530 1527 1524 1522 1519 1515 1512 1509 1507 1504 1502 1500 1497 1494 1492 1490 1487 1486 1484
1534 1531 1529 1526 1523 1520 1517 1514 1511 1507 1504 1503 1501 1498 1496 1494 1491 1488 1486 1483 1481 1479
1531 1527 1524 1521 1518 1515 1512 1510 1506 1502 1499 1496 1495 1494 1492 1489 1486 1484 1482 1479 1477 1475
1527 1523 1520 1517 1513 1510 1508 1505 1501 1499 1495 1492 1491 1489 1487 1484 1481 1479 1477 1474 1472 1469
1522 1518 1515 1512 1508 1505 1502 1499 1496 1493 1491 1488 1487 1485 1482 1479 1477 1474 1471 1469 1465 1462
1517 1513 1510 1507 1503 1500 1497 1494 1492 1488 1486 1485 1483 1481 1478 1475 1473 1469 1465 1462 1458 1454
1514 1509 1506 1502 1500 1496 1492 1489 1485 1485 1482 1480 1478 1476 1473 1470 1466 1462 1458 1454 1450 1446
1508 1504 1500 1497 1495 1490 1487 1481 1481 1479 1477 1477 1473 1469 1467 1464 1459 1455 1451 1447 1444 1441
1503 1499 1496 1493 1488 1484 1479 1479 1478 1475 1474 1471 1469 1465 1461 1457 1453 1449 1445 1441 1438 1433
1498 1494 1490 1486 1480 1477 1475 1474 1474 1472 1471 1468 1465 1460 1456 1451 1447 1444 1440 1436 1432 1427
1492 1488 1483 1479 1475 1472 1471 1472 1471 1469 1467 1464 1461 1455 1450 1446 1442 1438 1433 1429 1425 1421
1487 1481 1477 1474 1472 1471 1469 1469 1468 1466 1463 1460 1455 1450 1446 1441 1435 1431 1426 1422 1418 1414
1483 1478 1474 1471 1470 1468 1467 1466 1465 1463 1459 1455 1451 1446 1442 1438 1432 1427 1422 1418 1414 1410